Weather History for Oakland, CA

Change the Weather History Date:

Tuesday, June 19, 2012

  Actual Average Record
Temperature  
Mean Temperature 60 °F 63 °F  
Max Temperature 71 °F 71 °F 95 °F (1962)
Min Temperature 49 °F 54 °F 49 °F (2012)
Degree Days  
Heating Degree Days 5 3  
Month to date heating degree days 89 73  
Since 1 June heating degree days 89 73  
Since 1 July heating degree days 2864 2843  
Cooling Degree Days 0 1  
Month to date cooling degree days 8 8  
Year to date cooling degree days 15 24  
Since 1 June cooling degree days 8 8  
Growing Degree Days 9 (Base 50)    
Moisture  
Dew Point 50 °F    
Average Humidity 73    
Maximum Humidity 93    
Minimum Humidity 53    
Precipitation  
Precipitation 0.00 in 0.00 in 0.01 in (1975)
Month to date precipitation 0.09 0.15  
Year to date precipitation 11.94 13.19  
Since 1 July precipitation 15.01 20.78  
Sea Level Pressure  
Sea Level Pressure 29.88 in    
Wind  
Wind Speed 8 mph (NW)    
Max Wind Speed 22 mph    
Max Gust Speed 33 mph    
Visibility 9 miles    
Events      
T = Trace of Precipitation, MM = Missing Value Source: NWS Daily Summary

Daily Weather History Graph

Daily Weather History Graph

Search for Another Location

Airport:

Trip Planner

Search our weather history database for the weather conditions in past years. The results will help you decide how hot, cold, wet, or windy it might be!

Date:

Astronomy

Jun. 19, 2012 Rise Set
Actual Time 5:47 AM PDT 8:33 PM PDT
Civil Twilight 5:15 AM PDT 9:05 PM PDT
Nautical Twilight 4:36 AM PDT 9:44 PM PDT
Astronomical Twilight 3:52 AM PDT 10:28 PM PDT
Moon 5:55 AM PDT (6/19) 8:43 PM PDT (6/19)
Length of Visible Light 15h 49m
Length of Day
14h 46m
New Moon, 0% of the Moon is Illuminated
Jun 19
New Moon
Jun 26
First Quarter
Jul 3
Full
Jul 10
Last Quarter
Jul 18
New

Hourly Weather History & Observations

Time (PDT) Temp. Dew Point Humidity Pressure Visibility Wind Dir Wind Speed Gust Speed Precip Events Conditions
12:53 AM 52.0 °F 46.9 °F 83% 29.87 in 10.0 mi North 4.6 mph - N/A   Clear
1:53 AM 51.1 °F 46.9 °F 86% 29.87 in 9.0 mi Calm Calm - N/A   Clear
2:53 AM 50.0 °F 46.4 °F 87% 29.86 in 9.0 mi NNE 3.5 mph - N/A   Clear
3:53 AM 50.0 °F 46.9 °F 89% 29.87 in 9.0 mi NNE 5.8 mph - N/A   Clear
4:53 AM 48.9 °F 46.9 °F 93% 29.87 in 8.0 mi North 5.8 mph - N/A   Clear
5:43 AM 50.0 °F 48.2 °F 94% 29.89 in 6.0 mi NE 3.5 mph - N/A   Overcast
5:53 AM 50.0 °F 48.0 °F 93% 29.89 in 6.0 mi Calm Calm - N/A   Overcast
6:53 AM 54.0 °F 50.0 °F 86% 29.89 in 7.0 mi ENE 3.5 mph - N/A   Overcast
7:28 AM 55.4 °F 50.0 °F 82% 29.90 in 8.0 mi Calm Calm - N/A   Partly Cloudy
7:53 AM 55.9 °F 50.0 °F 80% 29.91 in 9.0 mi Calm Calm - N/A   Partly Cloudy
8:53 AM 57.0 °F 51.1 °F 81% 29.92 in 9.0 mi SW 3.5 mph - N/A   Partly Cloudy
9:53 AM 59.0 °F 51.1 °F 75% 29.93 in 10.0 mi SW 4.6 mph - N/A   Partly Cloudy
10:53 AM 62.1 °F 52.0 °F 70% 29.92 in 10.0 mi West 5.8 mph - N/A   Clear
11:53 AM 64.0 °F 52.0 °F 65% 29.93 in 10.0 mi West 8.1 mph - N/A   Clear
12:53 PM 66.0 °F 52.0 °F 60% 29.93 in 10.0 mi WNW 13.8 mph - N/A   Clear
1:53 PM 68.0 °F 52.0 °F 56% 29.92 in 10.0 mi WNW 13.8 mph - N/A   Clear
2:53 PM 70.0 °F 51.1 °F 51% 29.90 in 10.0 mi WNW 11.5 mph - N/A   Clear
3:53 PM 69.8 °F 51.8 °F 53% 29.88 in 10.0 mi WNW 11.5 mph - N/A   Clear
4:53 PM 68.0 °F 52.0 °F 56% 29.86 in 10.0 mi NW 17.3 mph - N/A   Clear
5:53 PM 66.0 °F 52.0 °F 60% 29.86 in 10.0 mi WNW 19.6 mph - N/A   Clear
6:53 PM 64.9 °F 51.1 °F 61% 29.84 in 10.0 mi WNW 12.7 mph - N/A   Partly Cloudy
7:53 PM 62.1 °F 52.0 °F 70% 29.85 in 10.0 mi WNW 10.4 mph - N/A   Partly Cloudy
8:53 PM 59.0 °F 51.8 °F 77% 29.85 in 10.0 mi NW 8.1 mph - N/A   Clear
9:53 PM 57.0 °F 51.1 °F 81% 29.86 in 10.0 mi WNW 8.1 mph - N/A   Clear
10:53 PM 57.0 °F 51.1 °F 81% 29.86 in 10.0 mi NW 4.6 mph - N/A   Clear
11:53 PM 55.9 °F 51.1 °F 84% 29.85 in 10.0 mi NW 4.6 mph - N/A   Clear